Location: Sternwarte auf dem Internationalen Platz Vogelsang IP
(50.5721°N, 6.4398°E)
Time: 18:19:54
(UTC+01:00)

Transit 2A Rocket - Pass Details

Date: 14 December 2025
Orbit: 581 x 903 km, 66.7° (Epoch: 15 January)

Event Time Altitude Azimuth Distance (km) Brightness Sun altitude
Rises 17:45:25 0° 319° (NW) 3,534 8.7 -11.2°
Reaches altitude 10° 17:48:04 10° 314° (NW) 2,581 8.0 -11.6°
Maximum altitude 17:53:45 45° 244° (WSW) 1,187 6.6 -12.4°
Drops below altitude 10° 17:59:08 10° 174° (S) 2,447 7.8 -13.2°
Sets 18:01:36 0° 168° (SSE) 3,334 8.4 -13.6°
